When you browse on this site, cookies collect data to enhance your experience and personalize the content and advertising you see.
Visit our Privacy Policy to learn more. By continuing to use the site, you agree to this use of cookies and data.

Hourly Weather Kanavka

Today, 11 July, Saturday

Time Temperature Precipitation Wind Pressure Humidity
00:00 +27°C° 0 mm 7 mps 757 mmHg 64%
01:00 +27°C° 0 mm 6 mps 757 mmHg 67%
02:00 +26°C° 0 mm 6 mps 757 mmHg 69%
03:00 +26°C° 0 mm 5 mps 757 mmHg 67%
04:00 +25°C° 0 mm 5 mps 757 mmHg 69%
05:00 +24°C° 0 mm 6 mps 758 mmHg 71%
06:00 +24°C° 0 mm 6 mps 758 mmHg 73%
07:00 +26°C° 0 mm 6 mps 758 mmHg 71%
08:00 +26°C° 0 mm 6 mps 758 mmHg 69%
09:00 +27°C° 0 mm 6 mps 758 mmHg 67%
10:00 +29°C° 0 mm 6 mps 758 mmHg 61%
11:00 +30°C° 0 mm 5 mps 758 mmHg 56%
12:00 +33°C° 0 mm 5 mps 758 mmHg 50%
13:00 +34°C° 0 mm 5 mps 758 mmHg 45%
14:00 +36°C° 0 mm 5 mps 758 mmHg 40%
15:00 +37°C° 0 mm 4 mps 758 mmHg 35%
16:00 +36°C° 0 mm 6 mps 757 mmHg 40%
17:00 +35°C° 0 mm 7 mps 757 mmHg 46%
18:00 +34°C° 0 mm 8 mps 757 mmHg 51%
19:00 +32°C° 0 mm 8 mps 758 mmHg 57%
20:00 +30°C° 0 mm 7 mps 758 mmHg 63%
21:00 +28°C° 0 mm 7 mps 758 mmHg 69%
22:00 +28°C° 0 mm 7 mps 758 mmHg 72%
23:00 +27°C° 0 mm 6 mps 758 mmHg 75%

Tomorrow, 12 July, Sunday

Time Temperature Precipitation Wind Pressure Humidity
00:00 +26°C° 0 mm 6 mps 758 mmHg 78%
01:00 +26°C° 0 mm 6 mps 758 mmHg 81%
02:00 +24°C° 0 mm 6 mps 758 mmHg 83%
03:00 +23°C° 0 mm 6 mps 758 mmHg 86%
04:00 +24°C° 0 mm 6 mps 758 mmHg 83%
05:00 +24°C° 0 mm 6 mps 757 mmHg 81%
06:00 +26°C° 0 mm 6 mps 757 mmHg 78%
07:00 +28°C° 0 mm 6 mps 757 mmHg 69%
08:00 +30°C° 0 mm 6 mps 757 mmHg 59%
09:00 +34°C° 0 mm 5 mps 757 mmHg 50%
10:00 +36°C° 0 mm 5 mps 757 mmHg 42%
11:00 +38°C° 0 mm 4 mps 756 mmHg 34%
12:00 +41°C° 0 mm 4 mps 756 mmHg 27%
13:00 +41°C° 0 mm 4 mps 756 mmHg 24%
14:00 +41°C° 0 mm 5 mps 756 mmHg 22%
15:00 +42°C° 0 mm 5 mps 755 mmHg 19%
16:00 +39°C° 0.3 mm 5 mps 756 mmHg 26%
17:00 +35°C° 0.3 mm 6 mps 756 mmHg 32%
18:00 +33°C° 0.3 mm 6 mps 756 mmHg 39%
19:00 +32°C° 0.2 mm 5 mps 756 mmHg 43%
20:00 +29°C° 0.2 mm 4 mps 756 mmHg 47%
21:00 +28°C° 0.2 mm 3 mps 755 mmHg 51%
22:00 +28°C° 0 mm 4 mps 755 mmHg 52%
23:00 +27°C° 0 mm 4 mps 755 mmHg 54%

Day after tomorrow, 13 July, Monday

Time Temperature Precipitation Wind Pressure Humidity
00:00 +27°C° 0 mm 4 mps 755 mmHg 55%
01:00 +27°C° 0 mm 4 mps 755 mmHg 54%
02:00 +27°C° 0 mm 4 mps 755 mmHg 53%
03:00 +27°C° 0 mm 3 mps 755 mmHg 53%
04:00 +27°C° 0 mm 4 mps 755 mmHg 52%
05:00 +28°C° 0 mm 4 mps 754 mmHg 52%
06:00 +28°C° 0 mm 4 mps 754 mmHg 51%
07:00 +30°C° 0 mm 4 mps 754 mmHg 46%
08:00 +33°C° 0 mm 4 mps 754 mmHg 41%
09:00 +35°C° 0 mm 4 mps 754 mmHg 35%
10:00 +37°C° 0 mm 4 mps 754 mmHg 30%
11:00 +40°C° 0 mm 4 mps 753 mmHg 25%
12:00 +42°C° 0 mm 4 mps 753 mmHg 20%
13:00 +42°C° 0 mm 5 mps 753 mmHg 18%
14:00 +44°C° 0 mm 6 mps 752 mmHg 16%
15:00 +44°C° 0 mm 7 mps 752 mmHg 14%
16:00 +44°C° 0 mm 6 mps 752 mmHg 15%
17:00 +42°C° 0 mm 5 mps 751 mmHg 16%
18:00 +41°C° 0 mm 4 mps 751 mmHg 18%
19:00 +40°C° 0 mm 4 mps 751 mmHg 19%
20:00 +37°C° 0 mm 4 mps 751 mmHg 20%
21:00 +36°C° 0 mm 4 mps 751 mmHg 22%
22:00 +35°C° 0 mm 4 mps 751 mmHg 22%
23:00 +34°C° 0 mm 4 mps 751 mmHg 23%

14 July, Tuesday

Time Temperature Precipitation Wind Pressure Humidity
00:00 +32°C° 0 mm 4 mps 751 mmHg 23%
01:00 +32°C° 0 mm 4 mps 751 mmHg 25%
02:00 +32°C° 0 mm 5 mps 751 mmHg 27%
03:00 +32°C° 0 mm 5 mps 751 mmHg 28%
04:00 +33°C° 0 mm 6 mps 751 mmHg 30%
05:00 +34°C° 0 mm 7 mps 751 mmHg 32%
06:00 +35°C° 0 mm 8 mps 751 mmHg 33%
07:00 +37°C° 0 mm 8 mps 751 mmHg 29%
08:00 +39°C° 0 mm 9 mps 751 mmHg 26%
09:00 +42°C° 0 mm 10 mps 751 mmHg 22%
10:00 +43°C° 0 mm 10 mps 751 mmHg 20%
11:00 +44°C° 0 mm 10 mps 751 mmHg 18%
12:00 +45°C° 0 mm 10 mps 751 mmHg 17%
13:00 +45°C° 0 mm 10 mps 751 mmHg 17%
14:00 +44°C° 0 mm 9 mps 751 mmHg 16%
15:00 +44°C° 0 mm 9 mps 751 mmHg 16%
16:00 +41°C° 0.1 mm 7 mps 751 mmHg 21%
17:00 +39°C° 0.1 mm 6 mps 751 mmHg 27%
18:00 +36°C° 0.1 mm 4 mps 751 mmHg 32%
19:00 +34°C° 0 mm 3 mps 751 mmHg 35%
20:00 +33°C° 0 mm 3 mps 751 mmHg 39%
21:00 +30°C° 0 mm 2 mps 751 mmHg 42%
22:00 +30°C° 0 mm 3 mps 751 mmHg 44%
23:00 +29°C° 0 mm 4 mps 752 mmHg 45%

15 July, Wednesday

Time Temperature Precipitation Wind Pressure Humidity
00:00 +29°C° 0 mm 5 mps 752 mmHg 47%
01:00 +28°C° 0.1 mm 5 mps 752 mmHg 49%
02:00 +28°C° 0.1 mm 5 mps 752 mmHg 52%
03:00 +27°C° 0.1 mm 5 mps 752 mmHg 55%
04:00 +27°C° 0 mm 4 mps 752 mmHg 56%
05:00 +27°C° 0 mm 2 mps 752 mmHg 57%
06:00 +27°C° 0 mm 1 mps 753 mmHg 58%
07:00 +28°C° 0 mm 2 mps 753 mmHg 54%
08:00 +29°C° 0 mm 3 mps 753 mmHg 50%
09:00 +32°C° 0 mm 4 mps 753 mmHg 46%
10:00 +32°C° 0 mm 5 mps 753 mmHg 45%
11:00 +33°C° 0 mm 5 mps 753 mmHg 44%
12:00 +33°C° 0 mm 6 mps 753 mmHg 43%
13:00 +33°C° 0 mm 6 mps 753 mmHg 42%
14:00 +33°C° 0 mm 6 mps 753 mmHg 42%
15:00 +33°C° 0 mm 7 mps 753 mmHg 41%
16:00 +30°C° 0.2 mm 6 mps 753 mmHg 46%
17:00 +29°C° 0.2 mm 5 mps 753 mmHg 50%
18:00 +27°C° 0.2 mm 3 mps 753 mmHg 55%
19:00 +26°C° 0 mm 3 mps 753 mmHg 56%
20:00 +26°C° 0 mm 3 mps 753 mmHg 57%
21:00 +25°C° 0 mm 3 mps 754 mmHg 59%
22:00 +24°C° 0 mm 3 mps 754 mmHg 59%
23:00 +24°C° 0 mm 3 mps 754 mmHg 59%

16 July, Thursday

Time Temperature Precipitation Wind Pressure Humidity
00:00 +22°C° 0 mm 3 mps 754 mmHg 59%
01:00 +23°C° 0 mm 2 mps 754 mmHg 63%
02:00 +21°C° 0 mm 2 mps 754 mmHg 66%
03:00 +20°C° 0 mm 2 mps 754 mmHg 69%
04:00 +21°C° 0 mm 2 mps 754 mmHg 67%
05:00 +21°C° 0 mm 3 mps 754 mmHg 65%
06:00 +22°C° 0 mm 4 mps 754 mmHg 63%
07:00 +23°C° 0 mm 5 mps 754 mmHg 57%
08:00 +25°C° 0 mm 5 mps 755 mmHg 52%
09:00 +27°C° 0 mm 6 mps 755 mmHg 46%
10:00 +27°C° 0 mm 7 mps 755 mmHg 42%
11:00 +28°C° 0 mm 7 mps 755 mmHg 38%
12:00 +29°C° 0 mm 7 mps 755 mmHg 34%
13:00 +29°C° 0 mm 7 mps 754 mmHg 32%
14:00 +30°C° 0 mm 7 mps 754 mmHg 30%
15:00 +30°C° 0 mm 7 mps 754 mmHg 28%
16:00 +29°C° 0 mm 6 mps 754 mmHg 29%
17:00 +28°C° 0 mm 6 mps 755 mmHg 30%
18:00 +28°C° 0 mm 6 mps 755 mmHg 31%
19:00 +26°C° 0 mm 5 mps 755 mmHg 36%
20:00 +23°C° 0 mm 4 mps 755 mmHg 41%
21:00 +22°C° 0 mm 4 mps 755 mmHg 47%
22:00 +21°C° 0 mm 3 mps 755 mmHg 51%
23:00 +20°C° 0 mm 3 mps 755 mmHg 56%
Show more